Year,Month,Day,Hour,Minute,Value (Times are PST for temperature in C)
2007,11,14,00,00,1.90
2007,11,14,00,01,2.00
2007,11,14,00,02,2.10
2007,11,14,00,03,2.10
2007,11,14,00,04,2.20
2007,11,14,00,05,2.20
2007,11,14,00,06,2.30
2007,11,14,00,07,2.40
2007,11,14,00,08,2.40
2007,11,14,00,09,2.50
2007,11,14,00,10,2.50
2007,11,14,00,11,2.40
2007,11,14,00,12,2.40
2007,11,14,00,13,2.30
2007,11,14,00,14,2.30
2007,11,14,00,15,2.30
2007,11,14,00,16,2.30
2007,11,14,00,17,2.40
2007,11,14,00,18,2.40
2007,11,14,00,19,2.40
2007,11,14,00,20,2.50
2007,11,14,00,21,2.50
2007,11,14,00,22,2.50
2007,11,14,00,23,2.40
2007,11,14,00,24,2.30
2007,11,14,00,25,2.20
2007,11,14,00,26,2.20
2007,11,14,00,27,2.20
2007,11,14,00,28,2.20
2007,11,14,00,29,2.10
2007,11,14,00,30,2.10
2007,11,14,00,31,2.20
2007,11,14,00,32,2.20
2007,11,14,00,33,2.20
2007,11,14,00,34,2.20
2007,11,14,00,35,2.30
2007,11,14,00,36,2.30
2007,11,14,00,37,2.30
2007,11,14,00,38,2.30
2007,11,14,00,39,2.30
2007,11,14,00,40,2.30
2007,11,14,00,41,2.30
2007,11,14,00,42,2.20
2007,11,14,00,43,2.20
2007,11,14,00,44,2.20
2007,11,14,00,45,2.20
2007,11,14,00,46,2.20
2007,11,14,00,47,2.30
2007,11,14,00,48,2.30
2007,11,14,00,49,2.40
2007,11,14,00,50,2.50
2007,11,14,00,51,2.60
2007,11,14,00,52,2.70
2007,11,14,00,53,2.70
2007,11,14,00,54,2.80
2007,11,14,00,55,2.90
2007,11,14,00,56,2.90
2007,11,14,00,57,2.80
2007,11,14,00,58,2.80
2007,11,14,00,59,2.70
2007,11,14,01,00,2.60
2007,11,14,01,01,2.50
2007,11,14,01,02,2.50
2007,11,14,01,03,2.50
2007,11,14,01,04,2.70
2007,11,14,01,05,2.70
2007,11,14,01,06,2.60
2007,11,14,01,07,2.50
2007,11,14,01,08,2.50
2007,11,14,01,09,2.40
2007,11,14,01,10,2.40
2007,11,14,01,11,2.40
2007,11,14,01,12,2.40
2007,11,14,01,13,2.60
2007,11,14,01,14,2.80
2007,11,14,01,15,3.00
2007,11,14,01,16,3.10
2007,11,14,01,17,3.20
2007,11,14,01,18,3.20
2007,11,14,01,19,3.30
2007,11,14,01,20,3.30
2007,11,14,01,21,3.50
2007,11,14,01,22,3.60
2007,11,14,01,23,3.60
2007,11,14,01,24,3.70
2007,11,14,01,25,3.80
2007,11,14,01,26,3.80
2007,11,14,01,27,3.80
2007,11,14,01,28,3.80
2007,11,14,01,29,3.80
2007,11,14,01,30,3.80
2007,11,14,01,31,3.80
2007,11,14,01,32,3.80
2007,11,14,01,33,3.80
2007,11,14,01,34,3.80
2007,11,14,01,35,3.70
2007,11,14,01,36,3.60
2007,11,14,01,37,3.50
2007,11,14,01,38,3.50
2007,11,14,01,39,3.60
2007,11,14,01,40,3.60
2007,11,14,01,41,3.60
2007,11,14,01,42,3.60
2007,11,14,01,43,3.60
2007,11,14,01,44,3.60
2007,11,14,01,45,3.60
2007,11,14,01,46,3.50
2007,11,14,01,47,3.50
2007,11,14,01,48,3.50
2007,11,14,01,49,3.50
2007,11,14,01,50,3.50
2007,11,14,01,51,3.50
2007,11,14,01,52,3.60
2007,11,14,01,53,3.60
2007,11,14,01,54,3.60
2007,11,14,01,55,3.60
2007,11,14,01,56,3.60
2007,11,14,01,57,3.60
2007,11,14,01,58,3.60
2007,11,14,01,59,3.50
2007,11,14,02,00,3.50
2007,11,14,02,01,3.50
2007,11,14,02,02,3.50
2007,11,14,02,03,3.40
2007,11,14,02,04,3.40
2007,11,14,02,05,3.50
2007,11,14,02,06,3.50
2007,11,14,02,07,3.50
2007,11,14,02,08,3.60
2007,11,14,02,09,3.60
2007,11,14,02,10,3.70
2007,11,14,02,11,3.80
2007,11,14,02,12,3.80
2007,11,14,02,13,3.80
2007,11,14,02,14,3.80
2007,11,14,02,15,3.80
2007,11,14,02,16,3.90
2007,11,14,02,17,3.90
2007,11,14,02,18,4.00
2007,11,14,02,19,4.00
2007,11,14,02,20,4.00
2007,11,14,02,21,4.10
2007,11,14,02,22,4.10
2007,11,14,02,23,4.20
2007,11,14,02,24,4.20
2007,11,14,02,25,4.20
2007,11,14,02,26,4.20
2007,11,14,02,27,4.10
2007,11,14,02,28,4.10
2007,11,14,02,29,4.20
2007,11,14,02,30,4.20
2007,11,14,02,31,4.20
2007,11,14,02,32,4.20
2007,11,14,02,33,4.20
2007,11,14,02,34,4.20
2007,11,14,02,35,4.20
2007,11,14,02,36,4.20
2007,11,14,02,37,4.20
2007,11,14,02,38,4.20
2007,11,14,02,39,4.20
2007,11,14,02,40,4.20
2007,11,14,02,41,4.20
2007,11,14,02,42,4.30
2007,11,14,02,43,4.30
2007,11,14,02,44,4.30
2007,11,14,02,45,4.30
2007,11,14,02,46,4.30
2007,11,14,02,47,4.30
2007,11,14,02,48,4.30
2007,11,14,02,49,4.40
2007,11,14,02,50,4.50
2007,11,14,02,51,4.50
2007,11,14,02,52,4.60
2007,11,14,02,53,4.60
2007,11,14,02,54,4.60
2007,11,14,02,55,4.60
2007,11,14,02,56,4.60
2007,11,14,02,57,4.60
2007,11,14,02,58,4.60
2007,11,14,02,59,4.60
2007,11,14,03,00,4.60
2007,11,14,03,01,4.60
2007,11,14,03,02,4.60
2007,11,14,03,03,4.60
2007,11,14,03,04,4.60
2007,11,14,03,05,4.60
2007,11,14,03,06,4.60
2007,11,14,03,07,4.60
2007,11,14,03,08,4.70
2007,11,14,03,09,4.70
2007,11,14,03,10,4.60
2007,11,14,03,11,4.60
2007,11,14,03,12,4.60
2007,11,14,03,13,4.70
2007,11,14,03,14,4.70
2007,11,14,03,15,4.70
2007,11,14,03,16,4.70
2007,11,14,03,17,4.70
2007,11,14,03,18,4.70
2007,11,14,03,19,4.70
2007,11,14,03,20,4.70
2007,11,14,03,21,4.70
2007,11,14,03,22,4.80
2007,11,14,03,23,4.80
2007,11,14,03,24,4.70
2007,11,14,03,25,4.70
2007,11,14,03,26,4.70
2007,11,14,03,27,4.70
2007,11,14,03,28,4.60
2007,11,14,03,29,4.70
2007,11,14,03,30,4.70
2007,11,14,03,31,4.70
2007,11,14,03,32,4.70
2007,11,14,03,33,4.70
2007,11,14,03,34,4.70
2007,11,14,03,35,4.70
2007,11,14,03,36,4.70
2007,11,14,03,37,4.70
2007,11,14,03,38,4.70
2007,11,14,03,39,4.70
2007,11,14,03,40,4.70
2007,11,14,03,41,4.70
2007,11,14,03,42,4.70
2007,11,14,03,43,4.70
2007,11,14,03,44,4.70
2007,11,14,03,45,4.80
2007,11,14,03,46,4.80
2007,11,14,03,47,4.80
2007,11,14,03,48,4.80
2007,11,14,03,49,4.80
2007,11,14,03,50,4.80
2007,11,14,03,51,4.80
2007,11,14,03,52,4.80
2007,11,14,03,53,4.80
2007,11,14,03,54,4.80
2007,11,14,03,55,4.70
2007,11,14,03,56,4.70
2007,11,14,03,57,4.70
2007,11,14,03,58,4.70
2007,11,14,03,59,4.70
2007,11,14,04,00,4.70
2007,11,14,04,01,4.70
2007,11,14,04,02,4.70
2007,11,14,04,03,4.70
2007,11,14,04,04,4.70
2007,11,14,04,05,4.70
2007,11,14,04,06,4.70
2007,11,14,04,07,4.70
2007,11,14,04,08,4.70
2007,11,14,04,09,4.70
2007,11,14,04,10,4.70
2007,11,14,04,11,4.70
2007,11,14,04,12,4.70
2007,11,14,04,13,4.70
2007,11,14,04,14,4.70
2007,11,14,04,15,4.70
2007,11,14,04,16,4.70
2007,11,14,04,17,4.60
2007,11,14,04,18,4.60
2007,11,14,04,19,4.60
2007,11,14,04,20,4.60
2007,11,14,04,21,4.60
2007,11,14,04,22,4.60
2007,11,14,04,23,4.60
2007,11,14,04,24,4.60
2007,11,14,04,25,4.60
2007,11,14,04,26,4.60
2007,11,14,04,27,4.60
2007,11,14,04,28,4.60
2007,11,14,04,29,4.60
2007,11,14,04,30,4.60
2007,11,14,04,31,4.60
2007,11,14,04,32,4.60
2007,11,14,04,33,4.60
2007,11,14,04,34,4.60
2007,11,14,04,35,4.60
2007,11,14,04,36,4.60
2007,11,14,04,37,4.60
2007,11,14,04,38,4.60
2007,11,14,04,39,4.60
2007,11,14,04,40,4.60
2007,11,14,04,41,4.70
2007,11,14,04,42,4.70
2007,11,14,04,43,4.70
2007,11,14,04,44,4.70
2007,11,14,04,45,4.70
2007,11,14,04,46,4.70
2007,11,14,04,47,4.70
2007,11,14,04,48,4.70
2007,11,14,04,49,4.70
2007,11,14,04,50,4.60
2007,11,14,04,51,4.60
2007,11,14,04,52,4.50
2007,11,14,04,53,4.50
2007,11,14,04,54,4.50
2007,11,14,04,55,4.40
2007,11,14,04,56,4.40
2007,11,14,04,57,4.40
2007,11,14,04,58,4.40
2007,11,14,04,59,4.40
2007,11,14,05,00,4.40
2007,11,14,05,01,4.40
2007,11,14,05,02,4.40
2007,11,14,05,03,4.40
2007,11,14,05,04,4.40
2007,11,14,05,05,4.40
2007,11,14,05,06,4.30
2007,11,14,05,07,4.30
2007,11,14,05,08,4.40
2007,11,14,05,09,4.40
2007,11,14,05,10,4.40
2007,11,14,05,11,4.40
2007,11,14,05,12,4.40
2007,11,14,05,13,4.40
2007,11,14,05,14,4.40
2007,11,14,05,15,4.40
2007,11,14,05,16,4.40
2007,11,14,05,17,4.40
2007,11,14,05,18,4.40
2007,11,14,05,19,4.40
2007,11,14,05,20,4.40
2007,11,14,05,21,4.40
2007,11,14,05,22,4.40
2007,11,14,05,23,4.40
2007,11,14,05,24,4.40
2007,11,14,05,25,4.40
2007,11,14,05,26,4.30
2007,11,14,05,27,4.30
2007,11,14,05,28,4.30
2007,11,14,05,29,4.30
2007,11,14,05,30,4.30
2007,11,14,05,31,4.30
2007,11,14,05,32,4.30
2007,11,14,05,33,4.30
2007,11,14,05,34,4.30
2007,11,14,05,35,4.30
2007,11,14,05,36,4.20
2007,11,14,05,37,4.20
2007,11,14,05,38,4.20
2007,11,14,05,39,4.20
2007,11,14,05,40,4.20
2007,11,14,05,41,4.20
2007,11,14,05,42,4.20
2007,11,14,05,43,4.10
2007,11,14,05,44,4.10
2007,11,14,05,45,4.10
2007,11,14,05,46,4.00
2007,11,14,05,47,4.00
2007,11,14,05,48,4.00
2007,11,14,05,49,4.00
2007,11,14,05,50,4.00
2007,11,14,05,51,4.00
2007,11,14,05,52,4.00
2007,11,14,05,53,4.00
2007,11,14,05,54,4.00
2007,11,14,05,55,4.00
2007,11,14,05,56,4.00
2007,11,14,05,57,4.00
2007,11,14,05,58,4.00
2007,11,14,05,59,4.00
2007,11,14,06,00,4.00
2007,11,14,06,01,4.00
2007,11,14,06,02,4.00
2007,11,14,06,03,4.00
2007,11,14,06,04,4.00
2007,11,14,06,05,4.00
2007,11,14,06,06,4.00
2007,11,14,06,07,4.00
2007,11,14,06,08,4.00
2007,11,14,06,09,4.00
2007,11,14,06,10,4.00
2007,11,14,06,11,4.00
2007,11,14,06,12,3.90
2007,11,14,06,13,3.90
2007,11,14,06,14,3.90
2007,11,14,06,15,3.90
2007,11,14,06,16,3.90
2007,11,14,06,17,3.90
2007,11,14,06,18,3.90
2007,11,14,06,19,3.90
2007,11,14,06,20,3.90
2007,11,14,06,21,3.90
2007,11,14,06,22,3.90
2007,11,14,06,23,3.90
2007,11,14,06,24,3.90
2007,11,14,06,25,3.90
2007,11,14,06,26,3.90
2007,11,14,06,27,3.90
2007,11,14,06,28,3.90
2007,11,14,06,29,3.80
2007,11,14,06,30,3.80
2007,11,14,06,31,3.80
2007,11,14,06,32,3.80
2007,11,14,06,33,3.80
2007,11,14,06,34,3.80
2007,11,14,06,35,3.80
2007,11,14,06,36,3.80
2007,11,14,06,37,3.80
2007,11,14,06,38,3.80
2007,11,14,06,39,3.80
2007,11,14,06,40,3.80
2007,11,14,06,41,3.80
2007,11,14,06,42,3.80
2007,11,14,06,43,3.80
2007,11,14,06,44,3.80
2007,11,14,06,45,3.80
2007,11,14,06,46,3.80
2007,11,14,06,47,3.80
2007,11,14,06,48,3.80
2007,11,14,06,49,3.80
2007,11,14,06,50,3.80
2007,11,14,06,51,3.80
2007,11,14,06,52,3.80
2007,11,14,06,53,3.80
2007,11,14,06,54,3.80
2007,11,14,06,55,3.80
2007,11,14,06,56,3.80
2007,11,14,06,57,3.80
2007,11,14,06,58,3.80
2007,11,14,06,59,3.80
2007,11,14,07,00,3.80
2007,11,14,07,01,3.80
2007,11,14,07,02,3.80
2007,11,14,07,03,3.80
2007,11,14,07,04,3.80
2007,11,14,07,05,3.80
2007,11,14,07,06,3.80
2007,11,14,07,07,3.80
2007,11,14,07,08,3.80
2007,11,14,07,09,3.80
2007,11,14,07,10,3.80
2007,11,14,07,11,3.80
2007,11,14,07,12,3.80
2007,11,14,07,13,3.80
2007,11,14,07,14,3.80
2007,11,14,07,15,3.80
2007,11,14,07,16,3.80
2007,11,14,07,17,3.80
2007,11,14,07,18,3.80
2007,11,14,07,19,3.80
2007,11,14,07,20,3.80
2007,11,14,07,21,3.80
2007,11,14,07,22,3.80
2007,11,14,07,23,3.80
2007,11,14,07,24,3.80
2007,11,14,07,25,3.80
2007,11,14,07,26,3.80
2007,11,14,07,27,3.80
2007,11,14,07,28,3.80
2007,11,14,07,29,3.80
2007,11,14,07,30,3.80
2007,11,14,07,31,3.80
2007,11,14,07,32,3.80
2007,11,14,07,33,3.80
2007,11,14,07,34,3.80
2007,11,14,07,35,3.80
2007,11,14,07,36,3.80
2007,11,14,07,37,3.80
2007,11,14,07,38,3.80
2007,11,14,07,39,3.80
2007,11,14,07,40,3.80
2007,11,14,07,41,3.80
2007,11,14,07,42,3.90
2007,11,14,07,43,3.90
2007,11,14,07,44,3.80
2007,11,14,07,45,3.80
2007,11,14,07,46,3.80
2007,11,14,07,47,3.90
2007,11,14,07,48,3.90
2007,11,14,07,49,3.90
2007,11,14,07,50,3.90
2007,11,14,07,51,3.90
2007,11,14,07,52,3.90
2007,11,14,07,53,3.90
2007,11,14,07,54,4.00
2007,11,14,07,55,4.00
2007,11,14,07,56,4.00
2007,11,14,07,57,4.00
2007,11,14,07,58,4.00
2007,11,14,07,59,4.10
2007,11,14,08,00,4.10
2007,11,14,08,01,4.20
2007,11,14,08,02,4.20
2007,11,14,08,03,4.20
2007,11,14,08,04,4.30
2007,11,14,08,05,4.30
2007,11,14,08,06,4.40
2007,11,14,08,07,4.40
2007,11,14,08,08,4.40
2007,11,14,08,09,4.50
2007,11,14,08,10,4.50
2007,11,14,08,11,4.60
2007,11,14,08,12,4.60
2007,11,14,08,13,4.60
2007,11,14,08,14,4.70
2007,11,14,08,15,4.80
2007,11,14,08,16,4.90
2007,11,14,08,17,4.90
2007,11,14,08,18,5.10
2007,11,14,08,19,5.10
2007,11,14,08,20,5.10
2007,11,14,08,21,5.10
2007,11,14,08,22,5.10
2007,11,14,08,23,5.10
2007,11,14,08,24,5.00
2007,11,14,08,25,4.90
2007,11,14,08,26,4.90
2007,11,14,08,27,4.90
2007,11,14,08,28,4.90
2007,11,14,08,29,4.90
2007,11,14,08,30,5.00
2007,11,14,08,31,5.10
2007,11,14,08,32,5.10
2007,11,14,08,33,5.30
2007,11,14,08,34,5.30
2007,11,14,08,35,5.40
2007,11,14,08,36,5.40
2007,11,14,08,37,5.50
2007,11,14,08,38,5.50
2007,11,14,08,39,5.60
2007,11,14,08,40,5.70
2007,11,14,08,41,5.70
2007,11,14,08,42,5.70
2007,11,14,08,43,5.70
2007,11,14,08,44,5.70
2007,11,14,08,45,5.70
2007,11,14,08,46,5.80
2007,11,14,08,47,5.90
2007,11,14,08,48,5.90
2007,11,14,08,49,5.90
2007,11,14,08,50,5.90
2007,11,14,08,51,5.90
2007,11,14,08,52,5.90
2007,11,14,08,53,5.90
2007,11,14,08,54,5.90
2007,11,14,08,55,5.90
2007,11,14,08,56,5.90
2007,11,14,08,57,5.90
2007,11,14,08,58,5.90
2007,11,14,08,59,5.90
2007,11,14,09,00,5.90
2007,11,14,09,01,5.90
2007,11,14,09,02,6.00
2007,11,14,09,03,6.00
2007,11,14,09,04,6.00
2007,11,14,09,05,6.00
2007,11,14,09,06,6.00
2007,11,14,09,07,6.00
2007,11,14,09,08,6.00
2007,11,14,09,09,6.00
2007,11,14,09,10,6.00
2007,11,14,09,11,6.00
2007,11,14,09,12,6.00
2007,11,14,09,13,6.10
2007,11,14,09,14,6.10
2007,11,14,09,15,6.10
2007,11,14,09,16,6.10
2007,11,14,09,17,6.10
2007,11,14,09,18,6.20
2007,11,14,09,19,6.20
2007,11,14,09,20,6.20
2007,11,14,09,21,6.20
2007,11,14,09,22,6.20
2007,11,14,09,23,6.20
2007,11,14,09,24,6.20
2007,11,14,09,25,6.30
2007,11,14,09,26,6.30
2007,11,14,09,27,6.30
2007,11,14,09,28,6.30
2007,11,14,09,29,6.30
2007,11,14,09,30,6.30
2007,11,14,09,31,6.20
2007,11,14,09,32,6.20
2007,11,14,09,33,6.20
2007,11,14,09,34,6.20
2007,11,14,09,35,6.20
2007,11,14,09,36,6.20
2007,11,14,09,37,6.20
2007,11,14,09,38,6.20
2007,11,14,09,39,6.20
2007,11,14,09,40,6.30
2007,11,14,09,41,6.30
2007,11,14,09,42,6.30
2007,11,14,09,43,6.40
2007,11,14,09,44,6.40
2007,11,14,09,45,6.40
2007,11,14,09,46,6.40
2007,11,14,09,47,6.40
2007,11,14,09,48,6.40
2007,11,14,09,49,6.40
2007,11,14,09,50,6.40
2007,11,14,09,51,6.40
2007,11,14,09,52,6.40
2007,11,14,09,53,6.40
2007,11,14,09,54,6.40
2007,11,14,09,55,6.40
2007,11,14,09,56,6.40
2007,11,14,09,57,6.40
2007,11,14,09,58,6.40
2007,11,14,09,59,6.40
2007,11,14,10,00,6.40
2007,11,14,10,01,6.40
2007,11,14,10,02,6.40
2007,11,14,10,03,6.40
2007,11,14,10,04,6.40
2007,11,14,10,05,6.40
2007,11,14,10,06,6.40
2007,11,14,10,07,6.50
2007,11,14,10,08,6.60
2007,11,14,10,09,6.60
2007,11,14,10,10,6.60
2007,11,14,10,11,6.60
2007,11,14,10,12,6.60
2007,11,14,10,13,6.60
2007,11,14,10,14,6.70
2007,11,14,10,15,6.70
2007,11,14,10,16,6.70
2007,11,14,10,17,6.80
2007,11,14,10,18,6.80
2007,11,14,10,19,6.80
2007,11,14,10,20,6.80
2007,11,14,10,21,6.80
2007,11,14,10,22,6.80
2007,11,14,10,23,6.80
2007,11,14,10,24,6.80
2007,11,14,10,25,6.80
2007,11,14,10,26,6.80
2007,11,14,10,27,6.80
2007,11,14,10,28,6.80
2007,11,14,10,29,6.80
2007,11,14,10,30,6.80
2007,11,14,10,31,6.80
2007,11,14,10,32,6.80
2007,11,14,10,33,6.90
2007,11,14,10,34,6.90
2007,11,14,10,35,6.90
2007,11,14,10,36,6.90
2007,11,14,10,37,6.90
2007,11,14,10,38,6.90
2007,11,14,10,39,6.90
2007,11,14,10,40,6.90
2007,11,14,10,41,6.90
2007,11,14,10,42,6.90
2007,11,14,10,43,6.90
2007,11,14,10,44,6.90
2007,11,14,10,45,7.00
2007,11,14,10,46,7.00
2007,11,14,10,47,7.00
2007,11,14,10,48,7.00
2007,11,14,10,49,7.00
2007,11,14,10,50,6.90
2007,11,14,10,51,6.90
2007,11,14,10,52,6.90
2007,11,14,10,53,6.90
2007,11,14,10,54,7.00
2007,11,14,10,55,7.00
2007,11,14,10,56,7.00
2007,11,14,10,57,7.00
2007,11,14,10,58,7.00
2007,11,14,10,59,7.00
2007,11,14,11,00,7.10
2007,11,14,11,01,7.10
2007,11,14,11,02,7.10
2007,11,14,11,03,7.10
2007,11,14,11,04,7.10
2007,11,14,11,05,7.10
2007,11,14,11,06,7.10
2007,11,14,11,07,7.10
2007,11,14,11,08,7.10
2007,11,14,11,09,7.10
2007,11,14,11,10,7.10
2007,11,14,11,11,7.10
2007,11,14,11,12,7.20
2007,11,14,11,13,7.20
2007,11,14,11,14,7.20
2007,11,14,11,15,7.20
2007,11,14,11,16,7.20
2007,11,14,11,17,7.30
2007,11,14,11,18,7.30
2007,11,14,11,19,7.30
2007,11,14,11,20,7.30
2007,11,14,11,21,7.30
2007,11,14,11,22,7.30
2007,11,14,11,23,7.30
2007,11,14,11,24,7.30
2007,11,14,11,25,7.30
2007,11,14,11,26,7.30
2007,11,14,11,27,7.30
2007,11,14,11,28,7.30
2007,11,14,11,29,7.30
2007,11,14,11,30,7.30
2007,11,14,11,31,7.30
2007,11,14,11,32,7.30
2007,11,14,11,33,7.30
2007,11,14,11,34,7.30
2007,11,14,11,35,7.30
2007,11,14,11,36,7.30
2007,11,14,11,37,7.30
2007,11,14,11,38,7.30
2007,11,14,11,39,7.40
2007,11,14,11,40,7.40
2007,11,14,11,41,7.40
2007,11,14,11,42,7.40
2007,11,14,11,43,7.40
2007,11,14,11,44,7.50
2007,11,14,11,45,7.50
2007,11,14,11,46,7.50
2007,11,14,11,47,7.50
2007,11,14,11,48,7.50
2007,11,14,11,49,7.50
2007,11,14,11,50,7.60
2007,11,14,11,51,7.60
2007,11,14,11,52,7.60
2007,11,14,11,53,7.60
2007,11,14,11,54,7.60
2007,11,14,11,55,7.60
2007,11,14,11,56,7.70
2007,11,14,11,57,7.70
2007,11,14,11,58,7.70
2007,11,14,11,59,7.70
2007,11,14,12,00,7.70
2007,11,14,12,01,7.70
2007,11,14,12,02,7.80
2007,11,14,12,03,7.80
2007,11,14,12,04,7.80
2007,11,14,12,05,7.80
2007,11,14,12,06,7.80
2007,11,14,12,07,7.80
2007,11,14,12,08,7.80
2007,11,14,12,09,7.80
2007,11,14,12,10,7.80
2007,11,14,12,11,7.80
2007,11,14,12,12,7.80
2007,11,14,12,13,7.80
2007,11,14,12,14,7.80
2007,11,14,12,15,7.80
2007,11,14,12,16,7.80
2007,11,14,12,17,7.80
2007,11,14,12,18,7.80
2007,11,14,12,19,7.90
2007,11,14,12,20,7.90
2007,11,14,12,21,7.90
2007,11,14,12,22,7.90
2007,11,14,12,23,7.90
2007,11,14,12,24,7.90
2007,11,14,12,25,7.90
2007,11,14,12,26,7.90
2007,11,14,12,27,8.00
2007,11,14,12,28,8.00
2007,11,14,12,29,8.00
2007,11,14,12,30,8.00
2007,11,14,12,31,8.00
2007,11,14,12,32,8.00
2007,11,14,12,33,8.00
2007,11,14,12,34,8.00
2007,11,14,12,35,8.00
2007,11,14,12,36,8.00
2007,11,14,12,37,8.00
2007,11,14,12,38,8.00
2007,11,14,12,39,8.00
2007,11,14,12,40,8.00
2007,11,14,12,41,8.00
2007,11,14,12,42,8.00
2007,11,14,12,43,8.00
2007,11,14,12,44,8.00
2007,11,14,12,45,8.00
2007,11,14,12,46,8.00
2007,11,14,12,47,8.10
2007,11,14,12,48,8.10
2007,11,14,12,49,8.10
2007,11,14,12,50,8.10
2007,11,14,12,51,8.10
2007,11,14,12,52,8.10
2007,11,14,12,53,8.10
2007,11,14,12,54,8.10
2007,11,14,12,55,8.10
2007,11,14,12,56,8.10
2007,11,14,12,57,8.10
2007,11,14,12,58,8.10
2007,11,14,12,59,8.10
2007,11,14,13,00,8.20
2007,11,14,13,01,8.20
2007,11,14,13,02,8.20
2007,11,14,13,03,8.20
2007,11,14,13,04,8.20
2007,11,14,13,05,8.20
2007,11,14,13,06,8.20
2007,11,14,13,07,8.20
2007,11,14,13,08,8.20
2007,11,14,13,09,8.20
2007,11,14,13,10,8.20
2007,11,14,13,11,8.20
2007,11,14,13,12,8.20
2007,11,14,13,13,8.20
2007,11,14,13,14,8.20
2007,11,14,13,15,8.20
2007,11,14,13,16,8.20
2007,11,14,13,17,8.10
2007,11,14,13,18,8.10
2007,11,14,13,19,8.10
2007,11,14,13,20,8.10
2007,11,14,13,21,8.10
2007,11,14,13,22,8.10
2007,11,14,13,23,8.10
2007,11,14,13,24,8.10
2007,11,14,13,25,8.10
2007,11,14,13,26,8.10
2007,11,14,13,27,8.10
2007,11,14,13,28,8.20
2007,11,14,13,29,8.20
2007,11,14,13,30,8.20
2007,11,14,13,31,8.20
2007,11,14,13,32,8.20
2007,11,14,13,33,8.20
2007,11,14,13,34,8.20
2007,11,14,13,35,8.20
2007,11,14,13,36,8.20
2007,11,14,13,37,8.20
2007,11,14,13,38,8.20
2007,11,14,13,39,8.20
2007,11,14,13,40,8.20
2007,11,14,13,41,8.20
2007,11,14,13,42,8.20
2007,11,14,13,43,8.20
2007,11,14,13,44,8.20
2007,11,14,13,45,8.20
2007,11,14,13,46,8.20
2007,11,14,13,47,8.20
2007,11,14,13,48,8.20
2007,11,14,13,49,8.20
2007,11,14,13,50,8.20
2007,11,14,13,51,8.20
2007,11,14,13,52,8.20
2007,11,14,13,53,8.20
2007,11,14,13,54,8.20
2007,11,14,13,55,8.20
2007,11,14,13,56,8.20
2007,11,14,13,57,8.10
2007,11,14,13,58,8.10
2007,11,14,13,59,8.10
2007,11,14,14,00,8.10
2007,11,14,14,01,8.00
2007,11,14,14,02,8.00
2007,11,14,14,03,8.00
2007,11,14,14,04,8.00
2007,11,14,14,05,8.00
2007,11,14,14,06,7.90
2007,11,14,14,07,7.90
2007,11,14,14,08,7.90
2007,11,14,14,09,7.90
2007,11,14,14,10,7.90
2007,11,14,14,11,7.90
2007,11,14,14,12,7.90
2007,11,14,14,13,7.90
2007,11,14,14,14,7.90
2007,11,14,14,15,7.90
2007,11,14,14,16,7.90
2007,11,14,14,17,7.90
2007,11,14,14,18,7.90
2007,11,14,14,19,7.90
2007,11,14,14,20,7.90
2007,11,14,14,21,7.90
2007,11,14,14,22,7.90
2007,11,14,14,23,7.90
2007,11,14,14,24,7.90
2007,11,14,14,25,7.90
2007,11,14,14,26,7.90
2007,11,14,14,27,7.90
2007,11,14,14,28,7.80
2007,11,14,14,29,7.80
2007,11,14,14,30,7.80
2007,11,14,14,31,7.80
2007,11,14,14,32,7.80
2007,11,14,14,33,7.90
2007,11,14,14,34,7.90
2007,11,14,14,35,7.90
2007,11,14,14,36,7.90
2007,11,14,14,37,7.90
2007,11,14,14,38,7.90
2007,11,14,14,39,8.00
2007,11,14,14,40,8.00
2007,11,14,14,41,8.00
2007,11,14,14,42,8.00
2007,11,14,14,43,8.10
2007,11,14,14,44,8.10
2007,11,14,14,45,8.10
2007,11,14,14,46,8.10
2007,11,14,14,47,8.10
2007,11,14,14,48,8.10
2007,11,14,14,49,8.10
2007,11,14,14,50,8.10
2007,11,14,14,51,8.10
2007,11,14,14,52,8.10
2007,11,14,14,53,8.10
2007,11,14,14,54,8.10
2007,11,14,14,55,8.10
2007,11,14,14,56,8.10
2007,11,14,14,57,8.10
2007,11,14,14,58,8.20
2007,11,14,14,59,8.20
2007,11,14,15,00,8.20
2007,11,14,15,01,8.20
2007,11,14,15,02,8.20
2007,11,14,15,03,8.20
2007,11,14,15,04,8.20
2007,11,14,15,05,8.20
2007,11,14,15,06,8.20
2007,11,14,15,07,8.20
2007,11,14,15,08,8.20
2007,11,14,15,09,8.20
2007,11,14,15,10,8.30
2007,11,14,15,11,8.30
2007,11,14,15,12,8.30
2007,11,14,15,13,8.30
2007,11,14,15,14,8.30
2007,11,14,15,15,8.30
2007,11,14,15,16,8.30
2007,11,14,15,17,8.30
2007,11,14,15,18,8.40
2007,11,14,15,19,8.40
2007,11,14,15,20,8.50
2007,11,14,15,21,8.50
2007,11,14,15,22,8.50
2007,11,14,15,23,8.50
2007,11,14,15,24,8.60
2007,11,14,15,25,8.60
2007,11,14,15,26,8.70
2007,11,14,15,27,8.70
2007,11,14,15,28,8.70
2007,11,14,15,29,8.70
2007,11,14,15,30,8.70
2007,11,14,15,31,8.70
2007,11,14,15,32,8.70
2007,11,14,15,33,8.80
2007,11,14,15,34,8.80
2007,11,14,15,35,8.90
2007,11,14,15,36,9.00
2007,11,14,15,37,9.00
2007,11,14,15,38,9.00
2007,11,14,15,39,9.20
2007,11,14,15,40,9.20
2007,11,14,15,41,9.20
2007,11,14,15,42,9.20
2007,11,14,15,43,9.20
2007,11,14,15,44,9.30
2007,11,14,15,45,9.30
2007,11,14,15,46,9.40
2007,11,14,15,47,9.40
2007,11,14,15,48,9.50
2007,11,14,15,49,9.50
2007,11,14,15,50,9.50
2007,11,14,15,51,9.50
2007,11,14,15,52,9.50
2007,11,14,15,53,9.50
2007,11,14,15,54,9.50
2007,11,14,15,55,9.50
2007,11,14,15,56,9.50
2007,11,14,15,57,9.50
2007,11,14,15,58,9.60
2007,11,14,15,59,9.60
2007,11,14,16,00,9.60
2007,11,14,16,01,9.60
2007,11,14,16,02,9.60
2007,11,14,16,03,9.60
2007,11,14,16,04,9.60
2007,11,14,16,05,9.60
2007,11,14,16,06,9.60
2007,11,14,16,07,9.60
2007,11,14,16,08,9.60
2007,11,14,16,09,9.60
2007,11,14,16,10,9.60
2007,11,14,16,11,9.60
2007,11,14,16,12,9.70
2007,11,14,16,13,9.70
2007,11,14,16,14,9.70
2007,11,14,16,15,9.70
2007,11,14,16,16,9.70
2007,11,14,16,17,9.70
2007,11,14,16,18,9.70
2007,11,14,16,19,9.70
2007,11,14,16,20,9.70
2007,11,14,16,21,9.70
2007,11,14,16,22,9.70
2007,11,14,16,23,9.70
2007,11,14,16,24,9.70
2007,11,14,16,25,9.70
2007,11,14,16,26,9.70
2007,11,14,16,27,9.70
2007,11,14,16,28,9.70
2007,11,14,16,29,9.70
2007,11,14,16,30,9.70
2007,11,14,16,31,9.70
2007,11,14,16,32,9.70
2007,11,14,16,33,9.80
2007,11,14,16,34,9.80
2007,11,14,16,35,9.80
2007,11,14,16,36,9.80
2007,11,14,16,37,9.80
2007,11,14,16,38,9.80
2007,11,14,16,39,9.80
2007,11,14,16,40,9.80
2007,11,14,16,41,9.80
2007,11,14,16,42,9.80
2007,11,14,16,43,9.80
2007,11,14,16,44,9.80
2007,11,14,16,45,9.80
2007,11,14,16,46,9.80
2007,11,14,16,47,9.90
2007,11,14,16,48,9.90
2007,11,14,16,49,9.90
2007,11,14,16,50,9.90
2007,11,14,16,51,9.90
2007,11,14,16,52,9.90
2007,11,14,16,53,9.90
2007,11,14,16,54,9.90
2007,11,14,16,55,10.10
2007,11,14,16,56,10.10
2007,11,14,16,57,10.10
2007,11,14,16,58,10.10
2007,11,14,16,59,10.10
2007,11,14,17,00,10.10
2007,11,14,17,01,10.10
2007,11,14,17,02,10.10
2007,11,14,17,03,10.10
2007,11,14,17,04,10.10
2007,11,14,17,05,10.10
2007,11,14,17,06,10.10
2007,11,14,17,07,10.10
2007,11,14,17,08,10.10
2007,11,14,17,09,10.20
2007,11,14,17,10,10.20
2007,11,14,17,11,10.20
2007,11,14,17,12,10.20
2007,11,14,17,13,10.20
2007,11,14,17,14,10.20
2007,11,14,17,15,10.20
2007,11,14,17,16,10.20
2007,11,14,17,17,10.30
2007,11,14,17,18,10.30
2007,11,14,17,19,10.30
2007,11,14,17,20,10.30
2007,11,14,17,21,10.30
2007,11,14,17,22,10.30
2007,11,14,17,23,10.30
2007,11,14,17,24,10.30
2007,11,14,17,25,10.30
2007,11,14,17,26,10.20
2007,11,14,17,27,10.20
2007,11,14,17,28,10.20
2007,11,14,17,29,10.20
2007,11,14,17,30,10.20
2007,11,14,17,31,10.20
2007,11,14,17,32,10.20
2007,11,14,17,33,10.20
2007,11,14,17,34,10.20
2007,11,14,17,35,10.20
2007,11,14,17,36,10.20
2007,11,14,17,37,10.20
2007,11,14,17,38,10.30
2007,11,14,17,39,10.40
2007,11,14,17,40,10.50
2007,11,14,17,41,10.60
2007,11,14,17,42,10.60
2007,11,14,17,43,10.60
2007,11,14,17,44,10.60
2007,11,14,17,45,10.60
2007,11,14,17,46,10.50
2007,11,14,17,47,10.40
2007,11,14,17,48,10.40
2007,11,14,17,49,10.30
2007,11,14,17,50,10.20
2007,11,14,17,51,10.20
2007,11,14,17,52,10.30
2007,11,14,17,53,10.30
2007,11,14,17,54,10.30
2007,11,14,17,55,10.10
2007,11,14,17,56,10.10
2007,11,14,17,57,10.10
2007,11,14,17,58,10.10
2007,11,14,17,59,10.10
2007,11,14,18,00,10.30
2007,11,14,18,01,10.60
2007,11,14,18,02,10.80
2007,11,14,18,03,10.90